Location: Newark
(52.7603°N, 20.3703°E)
Time: 01:45:08
(UTC+00:00)

Envisat - Visible Passes

Search period start: 22 September 2020 00:00
Search period end: 02 October 2020 00:00
Orbit: 764 x 766 km, 98.1° (Epoch: 21 September)

Date Brightness Start Highest point End Pass type
(mag) Time Alt. Az. Time Alt. Az. Time Alt. Az.
22 Sep 6.0 03:40:37 10° NE 03:44:28 21° E 03:48:16 10° SE visible
23 Sep 6.7 03:06:04 10° ENE 03:07:06 11° E 03:08:07 10° E visible
24 Sep 6.1 17:06:55 10° SW 17:10:31 19° W 17:14:09 10° NW visible
25 Sep 6.1 03:29:36 10° NE 03:32:57 17° E 03:36:17 10° SE visible
26 Sep 6.6 17:34:28 10° WSW 17:36:21 12° W 17:38:14 10° WNW visible
27 Sep 5.6 03:54:23 10° NE 03:58:42 27° E 04:03:00 10° SSE visible
27 Sep 5.9 16:55:00 10° SW 16:59:01 23° W 17:03:04 10° NW visible
28 Sep 6.3 03:18:44 10° NE 03:21:26 14° E 03:24:07 10° ESE visible
29 Sep 6.3 17:21:59 10° WSW 17:24:49 15° W 17:27:38 10° NW visible
30 Sep 5.9 03:43:14 10° NE 03:47:13 22° E 03:51:11 10° SE visible
01 Oct 6.6 03:08:12 10° ENE 03:09:53 11° E 03:11:32 10° ESE visible
